Powrót do katalogu

BURDAEV M.N.

AktywnyNawigacjaSSO
NORAD 57199·PAYLOAD·🇷🇺 Russia
Ta nazwa satelity nie została jeszcze potwierdzona przez oficjalne źródła.

Wystrzelony Jun 27, 2023 z Vostochny Cosmodrome

Loading…

Następne Przeloty (najbliższe 24 godziny)

TLE

ŚwieżeSource: Space-Track

Epoka: Sep 14, 2026, 12:24 UTC

1 57199U 23091AK  26257.51678055  .00017677  00000-0  41956-3 0  9991
2 57199  97.4995 330.3614 0007270 109.8888 250.3143 15.41743278178516

Śledź BURDAEV M.N. w czasie rzeczywistym z AllMySat

Download on the App Store